Location: Bratislava
(48.1517°N, 17.1093°E)
Time: 05:04:57
(UTC+01:00)

BlueWalker 3 - Visible Passes

Search period start: 27 February 2024 00:00
Search period end: 08 March 2024 00:00
Orbit: 486 x 500 km, 53.2° (Epoch: 26 February)

Date Brightness Start Highest point End Pass type
(mag) Time Alt. Az. Time Alt. Az. Time Alt. Az.
27 Feb 2.8 18:35:21 10° WNW 18:38:55 38° N 18:41:20 18° ENE visible
27 Feb 3.7 20:13:45 10° WNW 20:15:48 30° WNW 20:15:48 30° WNW visible
28 Feb 2.8 18:11:29 10° WNW 18:15:03 38° N 18:18:31 11° ENE visible
28 Feb 2.4 19:49:54 10° WNW 19:52:59 57° NW 19:52:59 57° NW visible
29 Feb 1.7 19:26:01 10° WNW 19:29:49 79° NNE 19:30:12 68° E visible
01 Mar 1.8 19:02:08 10° WNW 19:05:55 77° NNE 19:07:26 34° ESE visible
01 Mar 4.7 20:40:50 10° W 20:41:55 16° W 20:41:55 16° W visible
02 Mar 1.8 18:38:13 10° WNW 18:42:01 75° NNE 18:44:44 18° ESE visible
02 Mar 4.0 20:16:54 10° W 20:19:13 23° WSW 20:19:13 23° WSW visible
03 Mar 1.9 18:14:18 10° WNW 18:18:05 73° NNE 18:21:51 10° ESE visible
03 Mar 3.6 19:52:57 10° W 19:56:06 25° SW 19:56:35 24° SSW visible
04 Mar 3.7 19:28:59 10° W 19:32:10 26° SW 19:34:01 18° S visible
05 Mar 3.7 19:04:59 10° W 19:08:13 27° SW 19:11:24 10° SSE visible
06 Mar 3.8 18:40:59 10° WNW 18:44:14 28° SW 18:47:29 10° SSE visible
07 Mar 3.8 18:16:58 10° WNW 18:20:15 29° SW 18:23:32 10° SSE visible
